When you browse on this site, cookies collect data to enhance your experience and personalize the content and advertising you see.
Visit our Privacy Policy to learn more. By continuing to use the site, you agree to this use of cookies and data.
  • In Latvia
  • List of Countries
  • For 7 days
  • Water Temperature
  • Weather Map
  • Weather Widgets
  • user-avatar
    Login

    Hourly Weather Muranka

    Today, 31 May, Sunday

    Time Temperature Precipitation Wind Pressure Humidity
    00:00 +19°C° 8.7 mm 5 mps 749 mmHg 93%
    01:00 +19°C° 0.5 mm 4 mps 749 mmHg 93%
    02:00 +18°C° 0.5 mm 3 mps 749 mmHg 93%
    03:00 +17°C° 0.5 mm 2 mps 749 mmHg 93%
    04:00 +18°C° 0 mm 2 mps 749 mmHg 92%
    05:00 +18°C° 0 mm 3 mps 748 mmHg 91%
    06:00 +19°C° 0 mm 4 mps 748 mmHg 90%
    07:00 +19°C° 0 mm 4 mps 749 mmHg 86%
    08:00 +20°C° 0 mm 5 mps 749 mmHg 82%
    09:00 +20°C° 0 mm 6 mps 749 mmHg 78%
    10:00 +21°C° 0 mm 6 mps 749 mmHg 73%
    11:00 +22°C° 0 mm 7 mps 749 mmHg 69%
    12:00 +23°C° 0 mm 7 mps 749 mmHg 64%
    13:00 +23°C° 0 mm 7 mps 749 mmHg 64%
    14:00 +22°C° 0 mm 8 mps 749 mmHg 63%
    15:00 +22°C° 0 mm 8 mps 749 mmHg 63%
    16:00 +21°C° 0.1 mm 7 mps 749 mmHg 67%
    17:00 +20°C° 0.1 mm 7 mps 749 mmHg 71%
    18:00 +20°C° 0.1 mm 6 mps 749 mmHg 75%
    19:00 +17°C° 0 mm 5 mps 749 mmHg 78%
    20:00 +16°C° 0 mm 5 mps 750 mmHg 81%
    21:00 +15°C° 0 mm 4 mps 750 mmHg 84%
    22:00 +14°C° 0 mm 4 mps 750 mmHg 85%
    23:00 +14°C° 0 mm 4 mps 750 mmHg 86%

    Tomorrow, 1 June, Monday

    Time Temperature Precipitation Wind Pressure Humidity
    00:00 +13°C° 0 mm 4 mps 750 mmHg 86%
    01:00 +13°C° 0 mm 4 mps 750 mmHg 87%
    02:00 +13°C° 0 mm 4 mps 750 mmHg 88%
    03:00 +13°C° 0 mm 4 mps 750 mmHg 89%
    04:00 +13°C° 0 mm 5 mps 750 mmHg 87%
    05:00 +14°C° 0 mm 5 mps 750 mmHg 86%
    06:00 +15°C° 0 mm 5 mps 750 mmHg 84%
    07:00 +16°C° 0 mm 5 mps 750 mmHg 80%
    08:00 +17°C° 0 mm 6 mps 751 mmHg 76%
    09:00 +20°C° 0 mm 6 mps 751 mmHg 71%
    10:00 +20°C° 0.7 mm 6 mps 751 mmHg 70%
    11:00 +21°C° 0.7 mm 6 mps 751 mmHg 69%
    12:00 +21°C° 0.7 mm 6 mps 751 mmHg 68%
    13:00 +21°C° 0.8 mm 6 mps 751 mmHg 68%
    14:00 +21°C° 0.8 mm 5 mps 752 mmHg 69%
    15:00 +21°C° 0.8 mm 5 mps 752 mmHg 70%
    16:00 +20°C° 0.5 mm 4 mps 752 mmHg 73%
    17:00 +20°C° 0.5 mm 3 mps 752 mmHg 76%
    18:00 +20°C° 0.5 mm 2 mps 752 mmHg 80%
    19:00 +18°C° 0.2 mm 2 mps 753 mmHg 83%
    20:00 +17°C° 0.2 mm 2 mps 753 mmHg 87%
    21:00 +15°C° 0.2 mm 1 mps 754 mmHg 90%
    22:00 +14°C° 0 mm 2 mps 754 mmHg 92%
    23:00 +13°C° 0 mm 3 mps 754 mmHg 93%

    Day after tomorrow, 2 June, Tuesday

    Time Temperature Precipitation Wind Pressure Humidity
    00:00 +12°C° 0 mm 3 mps 754 mmHg 94%
    01:00 +11°C° 0 mm 3 mps 754 mmHg 94%
    02:00 +11°C° 0 mm 4 mps 754 mmHg 94%
    03:00 +10°C° 0 mm 4 mps 755 mmHg 93%
    04:00 +11°C° 0 mm 4 mps 755 mmHg 92%
    05:00 +11°C° 0 mm 4 mps 755 mmHg 91%
    06:00 +12°C° 0 mm 4 mps 755 mmHg 90%
    07:00 +13°C° 0.1 mm 4 mps 755 mmHg 89%
    08:00 +13°C° 0.1 mm 4 mps 755 mmHg 88%
    09:00 +14°C° 0.1 mm 3 mps 755 mmHg 87%
    10:00 +14°C° 0.8 mm 3 mps 755 mmHg 89%
    11:00 +14°C° 0.8 mm 3 mps 755 mmHg 91%
    12:00 +14°C° 0.8 mm 3 mps 756 mmHg 94%
    13:00 +15°C° 0.4 mm 2 mps 755 mmHg 94%
    14:00 +16°C° 0.4 mm 2 mps 755 mmHg 94%
    15:00 +16°C° 0.4 mm 2 mps 755 mmHg 95%
    16:00 +16°C° 0.1 mm 2 mps 755 mmHg 93%
    17:00 +16°C° 0.1 mm 2 mps 755 mmHg 92%
    18:00 +17°C° 0.1 mm 3 mps 755 mmHg 91%
    19:00 +16°C° 0.1 mm 2 mps 755 mmHg 92%
    20:00 +16°C° 0.1 mm 2 mps 755 mmHg 94%
    21:00 +15°C° 0.1 mm 2 mps 755 mmHg 95%
    22:00 +15°C° 0 mm 2 mps 755 mmHg 96%
    23:00 +14°C° 0 mm 2 mps 755 mmHg 97%

    3 June, Wednesday

    Time Temperature Precipitation Wind Pressure Humidity
    00:00 +14°C° 0 mm 2 mps 755 mmHg 98%
    01:00 +14°C° 0 mm 2 mps 755 mmHg 98%
    02:00 +14°C° 0 mm 2 mps 755 mmHg 98%
    03:00 +13°C° 0 mm 2 mps 754 mmHg 98%
    04:00 +14°C° 0 mm 2 mps 755 mmHg 96%
    05:00 +15°C° 0 mm 2 mps 755 mmHg 95%
    06:00 +14°C° 0 mm 3 mps 755 mmHg 94%
    07:00 +16°C° 0 mm 3 mps 755 mmHg 91%
    08:00 +17°C° 0 mm 3 mps 755 mmHg 88%
    09:00 +18°C° 0 mm 4 mps 755 mmHg 86%
    10:00 +18°C° 0 mm 4 mps 755 mmHg 83%
    11:00 +19°C° 0 mm 4 mps 755 mmHg 81%
    12:00 +19°C° 0 mm 5 mps 755 mmHg 78%
    13:00 +20°C° 0 mm 5 mps 755 mmHg 77%
    14:00 +20°C° 0 mm 5 mps 755 mmHg 76%
    15:00 +20°C° 0 mm 5 mps 755 mmHg 75%
    16:00 +20°C° 0 mm 5 mps 755 mmHg 76%
    17:00 +19°C° 0 mm 4 mps 755 mmHg 78%
    18:00 +19°C° 0 mm 4 mps 755 mmHg 80%
    19:00 +17°C° 0 mm 4 mps 755 mmHg 82%
    20:00 +15°C° 0 mm 4 mps 755 mmHg 84%
    21:00 +14°C° 0 mm 3 mps 755 mmHg 86%
    22:00 +14°C° 0 mm 3 mps 755 mmHg 87%
    23:00 +13°C° 0 mm 4 mps 755 mmHg 88%

    4 June, Thursday

    Time Temperature Precipitation Wind Pressure Humidity
    00:00 +13°C° 0 mm 4 mps 755 mmHg 90%
    01:00 +12°C° 0 mm 4 mps 755 mmHg 90%
    02:00 +12°C° 0 mm 4 mps 755 mmHg 91%
    03:00 +11°C° 0 mm 4 mps 755 mmHg 91%
    04:00 +12°C° 0 mm 4 mps 755 mmHg 88%
    05:00 +13°C° 0 mm 4 mps 755 mmHg 85%
    06:00 +13°C° 0 mm 5 mps 755 mmHg 82%
    07:00 +15°C° 0 mm 5 mps 755 mmHg 77%
    08:00 +16°C° 0 mm 5 mps 755 mmHg 73%
    09:00 +17°C° 0 mm 5 mps 755 mmHg 69%
    10:00 +19°C° 0 mm 5 mps 754 mmHg 66%
    11:00 +20°C° 0 mm 6 mps 754 mmHg 64%
    12:00 +21°C° 0 mm 6 mps 754 mmHg 61%
    13:00 +22°C° 0 mm 6 mps 753 mmHg 63%
    14:00 +22°C° 0 mm 6 mps 753 mmHg 64%
    15:00 +22°C° 0 mm 6 mps 752 mmHg 66%
    16:00 +22°C° 0 mm 6 mps 752 mmHg 70%
    17:00 +22°C° 0 mm 6 mps 752 mmHg 74%
    18:00 +21°C° 0 mm 6 mps 751 mmHg 79%
    19:00 +20°C° 0 mm 6 mps 751 mmHg 81%
    20:00 +20°C° 0 mm 6 mps 750 mmHg 84%
    21:00 +19°C° 0 mm 6 mps 750 mmHg 87%
    22:00 +19°C° 0.2 mm 6 mps 749 mmHg 87%
    23:00 +17°C° 0.2 mm 6 mps 749 mmHg 87%

    5 June, Friday

    Time Temperature Precipitation Wind Pressure Humidity
    00:00 +17°C° 0.2 mm 7 mps 749 mmHg 87%
    01:00 +17°C° 0.1 mm 6 mps 749 mmHg 89%
    02:00 +17°C° 0.1 mm 5 mps 748 mmHg 90%
    03:00 +17°C° 0.1 mm 4 mps 748 mmHg 91%
    04:00 +17°C° 0.6 mm 4 mps 748 mmHg 93%
    05:00 +17°C° 0.6 mm 4 mps 748 mmHg 94%
    06:00 +17°C° 0.6 mm 4 mps 748 mmHg 95%
    07:00 +17°C° 0.1 mm 5 mps 749 mmHg 91%
    08:00 +17°C° 0.1 mm 5 mps 749 mmHg 87%
    09:00 +19°C° 0.1 mm 6 mps 750 mmHg 83%
    10:00 +19°C° 0.1 mm 5 mps 750 mmHg 80%
    11:00 +20°C° 0.1 mm 5 mps 751 mmHg 77%
    12:00 +20°C° 0.1 mm 5 mps 751 mmHg 74%
    13:00 +21°C° 0 mm 5 mps 751 mmHg 73%
    14:00 +21°C° 0 mm 4 mps 752 mmHg 71%
    15:00 +21°C° 0 mm 4 mps 752 mmHg 69%
    16:00 +21°C° 0 mm 3 mps 752 mmHg 71%
    17:00 +21°C° 0 mm 3 mps 752 mmHg 73%
    18:00 +21°C° 0 mm 2 mps 752 mmHg 75%
    19:00 +20°C° 0 mm 2 mps 753 mmHg 78%
    20:00 +18°C° 0 mm 2 mps 753 mmHg 81%
    21:00 +16°C° 0 mm 2 mps 753 mmHg 84%
    22:00 +16°C° 0.1 mm 2 mps 754 mmHg 86%
    23:00 +15°C° 0.1 mm 2 mps 754 mmHg 88%
    Show more